COMPANY RECORD · MIAMI-DADE COUNTY, FL
Evolution Electrical Contractor Group — permit history in Miami-Dade County, FL
Evolution Electrical Contractor Group appears on 59 Miami-Dade County permit records from 2024 through 2026, all of them electrical.
Permit categories
| Category | Permits | Share |
|---|---|---|
| Electrical | 59 | 100% |
Activity by year
| Year | Permits issued |
|---|---|
| 2024 | 21 |
| 2025 | 28 |
| 2026 | 10 |
Busiest year on record: 2025, with 28 permits. One project can account for several filings, so read this as filing activity rather than workload.
Where they worked
| Address in source | Most recent permit |
|---|---|
| 15715 SW 196 AVE | 2026-08-26 |
| 1 OPF EMBASSAIR FBO | 2026-07-23 |
| 11724 SW 142 CT | 2026-04-24 |
| 26230 SW 123 AVE | 2026-04-10 |
| 2653 NE 190 TER | 2026-03-24 |
| 16641 SW 145 CT | 2026-03-23 |
| 13115 SW 207 ST | 2026-03-09 |
| 4341 SW 12 ST | 2026-01-27 |
| 8290 SW 99 ST | 2026-01-08 |
| 6645 SW 94 CT | 2025-12-16 |
| 15260 SW 102 PL | 2025-11-20 |
| 1160 NE 112 ST | 2025-11-17 |
| 14100 NE 1 AVE | 2025-11-13 |
| 14973 SW 142 ST | 2025-11-03 |
55 distinct addresses on record; the 14 most recent are shown. Declared value on record runs from $600 to $950,000, median $30,320. Addresses appear as the authority published them. A permit is a filing at an address, not a completed job there.
Permits on record
59 permits; open the 50 most recent
| Permit | Issued | Category | Address in source | Scope as filed | Declared value |
|---|---|---|---|---|---|
| 2026067674 | 2026-08-26 | Electrical | 15715 SW 196 AVE | REPAIR METER | $1,500 |
| 2026060375 | 2026-07-23 | Electrical | 1 OPF EMBASSAIR FBO | ELEC. INSTALL | $605,928 |
| 2026041575 | 2026-04-24 | Electrical | 11724 SW 142 CT | SOLAR SYSTEM | $11,461 |
| 2026038094 | 2026-04-10 | Electrical | 26230 SW 123 AVE | ELEC. FOR SOLAR SYS | $19,835 |
| 2026034518 | 2026-03-24 | Electrical | 2653 NE 190 TER | ELEC | $1,600 |
| 2026034034 | 2026-03-23 | Electrical | 16641 SW 145 CT | SOLAR PANELS | $23,983 |
| 2026032381 | 2026-03-16 | Electrical | 16641 SW 145 CT | ELECTRICAL UPGRADE | $1,500 |
| 2026030720 | 2026-03-09 | Electrical | 13115 SW 207 ST | SOLAR SYSTEM | $7,800 |
| 2026022570 | 2026-01-27 | Electrical | 4341 SW 12 ST | EV CHARGER INSTALL | $10,000 |
| 2026018883 | 2026-01-08 | Electrical | 8290 SW 99 ST | ROOFTOP SOLAR PV | $47,501 |
| 2026015692 | 2025-12-16 | Electrical | 6645 SW 94 CT | SOLAR PV SYS ROOF | $15,352 |
| 2026010685 | 2025-11-20 | Electrical | 15260 SW 102 PL | SOLAR PV | $19,880 |
| 2026009839 | 2025-11-17 | Electrical | 1160 NE 112 ST | SOLAR PV | $12,165 |
| 2026009203 | 2025-11-13 | Electrical | 14100 NE 1 AVE | ELEC. FOR PANELS | $69,996 |
| 2026007904 | 2025-11-05 | Electrical | 4341 SW 12 ST | ROOF MT SOLAR PANEL | $18,959 |
| 2026007176 | 2025-11-03 | Electrical | 14973 SW 142 ST | ELE FOR PANELS | $12,818 |
| 2026000927 | 2025-10-03 | Electrical | 8230 NW 12 CT | ROOF SOLAR SYSTEM | $12,483 |
| 2026000117 | 2025-10-01 | Electrical | 14973 SW 142 ST | INSTLL POWERWALL | $10,217 |
| 2026000065 | 2025-10-01 | Electrical | 1535 37 SW 70 AVE | ADDITION/WINDOWS | $10,000 |
| 2025072788 | 2025-09-18 | Electrical | 2001 NW 84 ST | PV SOLAR SYSTEM | $30,320 |
| 2025072474 | 2025-09-17 | Electrical | 13821 SW 102 TER | PV SOLAR SYSTEM | $36,720 |
| 2025072679 | 2025-09-17 | Electrical | 30302 SW 155 PL | PV SYSTEM ROOFTOP | $28,085 |
| 2025070193 | 2025-09-05 | Electrical | 14130 NE 1 AVE | SOLAR PANEL | $4,732 |
| 2025069537 | 2025-09-03 | Electrical | 6835 SW 94 CT | SOLAR SYSTEM | $65,600 |
| 2025065709 | 2025-08-15 | Electrical | 8050 NW 1 PL | SOLAR SYSTEM | $35,231 |
| 2025064017 | 2025-08-08 | Electrical | 5961 NW 201 ST | PV SOLAR SYSTEM | $35,856 |
| 2025063833 | 2025-08-07 | Electrical | 17905 NW 76 CT | ELEC WORK | $2,000 |
| 2025057056 | 2025-07-09 | Electrical | 201 NE 112 ST | REPLACE WATER HEATE | $8,950 |
| 2025056916 | 2025-07-09 | Electrical | 18793 NW 80 AVE | ELECTRICAL UPGRADE | $1,500 |
| 2025056550 | 2025-07-08 | Electrical | 11830 SW 272 TER | SOLAR PV ROOFTOP | $32,828 |
| 2025052319 | 2025-06-17 | Electrical | 18793 NW 80 AVE | ROOF SOLAR PV SYSTE | $45,804 |
| 2025050412 | 2025-06-09 | Electrical | 328 NW 143 ST | SOLAR SYSTEM | $5,683 |
| 2025032129 | 2025-03-19 | Electrical | 9202 SW 34 ST | REPLACED THE METER | $600 |
| 2025031127 | 2025-03-14 | Electrical | 18021 NW 77 CT | UPGRADE SERVICE | $2,500 |
| 2025030711 | 2025-03-12 | Electrical | 19001 NE 14 AVE 111 | ELEC | $6,750 |
| 2025025208 | 2025-02-13 | Electrical | 3700 SW 72 AVE | RFTP PV SLR SYS | $59,306 |
| 2025021168 | 2025-01-27 | Electrical | 21200 SW 177 CT | ROF SOLAR SYSTEM | $132,494 |
| 2025020323 | 2025-01-22 | Electrical | 12914 SW 283 LN | PHOTVOLTAIC SYSTEM | $31,779 |
| 2025016384 | 2024-12-26 | Electrical | 18680 SW 200 ST | ELEC | $80,552 |
| 2025015882 | 2024-12-20 | Electrical | 10465 SW 43 ST | PART INT/EXT DEMO | $80,000 |
| 2025015662 | 2024-12-19 | Electrical | 7425 SW 56 AVE | NEW SFR/TEMP TEST26 | $950,000 |
| 2025011468 | 2024-11-26 | Electrical | 11327 SW 111 COURT RD | PHOTOVOLTACI SYSTEM | $36,086 |
| 2025011200 | 2024-11-25 | Electrical | 19065 SW 307 ST | SOLAR PV | $47,520 |
| 2025010745 | 2024-11-22 | Electrical | 8280 SW 88 ST | ROOF MT SOLAR PANEL | $68,880 |
| 2025009887 | 2024-11-19 | Electrical | 651 NE 172 ST | TEMP FOR TESTVATION | $60,000 |
| 2025009068 | 2024-11-14 | Electrical | 3245 NW 80 TER | ROOF SOLAR PANELS | $24,024 |
| 2025008546 | 2024-11-13 | Electrical | 210 NW 119 CT | PV SOLAR SYSTEM | $55,365 |
| 2025007128 | 2024-11-05 | Electrical | 6332 NW 173 TER | ELEC CONNECT SOLAR | $27,132 |
| 2025002472 | 2024-10-15 | Electrical | 13615 NW 2 AVE | SOLAR PANELS | $40,689 |
| 2025002381 | 2024-10-15 | Electrical | 1645 NW 117 ST | SOLAR PANELS | $41,227 |
Fields appear as the issuing authority published them, including spelling and blanks. Scope text is the applicant's description of intended work, not an inspection finding.
Source and limits
Public Miami-Dade County permit records through 2026, counted by distinct permit number. This is a historical filing record: it cannot show current backlog, pricing, crew availability, licensing or insurance, and a quiet period may only mean work was filed elsewhere. Confirm anything commercial with the company and with the issuing authority before acting. How we build these records, and what we withhold →
